• In Deutschland
  • Länderverzeichnis
  • Für 7 Tage
  • Wassertemperatur
  • Satellitenkarten
  • Wetterkarte
  • Widgets
  • user-avatar
    Anmelden

    Stündliche Wetter Vechta

    Heute, 21 Februar, Mittwoch

    Zeit Temperatur Niederschläge Wind Luftdruck Luftfeuchtigkeit
    00:00 -3°C° 0 mm 2 m/S 764 mmHg 85%
    01:00 -3°C° 0 mm 2 m/S 765 mmHg 86%
    02:00 -3°C° 0 mm 2 m/S 765 mmHg 86%
    03:00 -4°C° 0 mm 2 m/S 765 mmHg 86%
    04:00 -4°C° 0 mm 2 m/S 765 mmHg 86%
    05:00 -4°C° 0 mm 2 m/S 765 mmHg 86%
    06:00 -4°C° 0 mm 2 m/S 765 mmHg 85%
    07:00 -4°C° 0 mm 2 m/S 766 mmHg 87%
    08:00 -3°C° 0 mm 2 m/S 766 mmHg 80%
    09:00 -2°C° 0 mm 2 m/S 766 mmHg 73%
    10:00 +1°C° 0 mm 2 m/S 766 mmHg 67%
    11:00 +1°C° 0 mm 3 m/S 766 mmHg 62%
    12:00 +2°C° 0 mm 3 m/S 766 mmHg 57%
    13:00 +3°C° 0 mm 3 m/S 766 mmHg 53%
    14:00 +3°C° 0 mm 3 m/S 766 mmHg 53%
    15:00 +3°C° 0 mm 3 m/S 765 mmHg 54%
    16:00 +3°C° 0 mm 3 m/S 765 mmHg 54%
    17:00 +1°C° 0 mm 3 m/S 765 mmHg 60%
    18:00 0°C° 0 mm 3 m/S 765 mmHg 66%
    19:00 -2°C° 0 mm 2 m/S 766 mmHg 72%
    20:00 -2°C° 0 mm 3 m/S 766 mmHg 74%
    21:00 -2°C° 0 mm 3 m/S 766 mmHg 75%
    22:00 -4°C° 0 mm 3 m/S 766 mmHg 77%
    23:00 -4°C° 0 mm 3 m/S 766 mmHg 78%

    Morgen, 22 Februar, Donnerstag

    Zeit Temperatur Niederschläge Wind Luftdruck Luftfeuchtigkeit
    00:00 -3°C° 0 mm 2 m/S 766 mmHg 79%
    01:00 -3°C° 0 mm 2 m/S 766 mmHg 81%
    02:00 -3°C° 0 mm 2 m/S 766 mmHg 82%
    03:00 -3°C° 0 mm 2 m/S 766 mmHg 83%
    04:00 -3°C° 0 mm 2 m/S 766 mmHg 83%
    05:00 -3°C° 0 mm 2 m/S 766 mmHg 83%
    06:00 -3°C° 0 mm 2 m/S 766 mmHg 83%
    07:00 -3°C° 0 mm 2 m/S 766 mmHg 83%
    08:00 -2°C° 0 mm 2 m/S 766 mmHg 77%
    09:00 -1°C° 0 mm 2 m/S 766 mmHg 71%
    10:00 +1°C° 0 mm 2 m/S 766 mmHg 65%
    11:00 +2°C° 0 mm 2 m/S 766 mmHg 63%
    12:00 +3°C° 0 mm 2 m/S 766 mmHg 60%
    13:00 +2°C° 0 mm 3 m/S 765 mmHg 58%
    14:00 +2°C° 0 mm 3 m/S 765 mmHg 60%
    15:00 +2°C° 0 mm 3 m/S 765 mmHg 63%
    16:00 +2°C° 0 mm 3 m/S 765 mmHg 65%
    17:00 +2°C° 0 mm 2 m/S 765 mmHg 71%
    18:00 +1°C° 0 mm 2 m/S 765 mmHg 78%
    19:00 -1°C° 0 mm 2 m/S 765 mmHg 84%
    20:00 -1°C° 0 mm 2 m/S 765 mmHg 86%
    21:00 -2°C° 0 mm 2 m/S 765 mmHg 87%
    22:00 -2°C° 0 mm 2 m/S 765 mmHg 89%
    23:00 -3°C° 0 mm 2 m/S 765 mmHg 89%

    übermorgen, 23 Februar, Freitag

    Zeit Temperatur Niederschläge Wind Luftdruck Luftfeuchtigkeit
    00:00 -3°C° 0 mm 2 m/S 765 mmHg 90%
    01:00 -3°C° 0 mm 2 m/S 765 mmHg 91%
    02:00 -4°C° 0 mm 2 m/S 765 mmHg 91%
    03:00 -4°C° 0 mm 2 m/S 765 mmHg 90%
    04:00 -4°C° 0 mm 2 m/S 765 mmHg 90%
    05:00 -4°C° 0 mm 2 m/S 765 mmHg 89%
    06:00 -4°C° 0 mm 2 m/S 765 mmHg 88%
    07:00 -4°C° 0 mm 2 m/S 765 mmHg 86%
    08:00 -4°C° 0 mm 3 m/S 766 mmHg 77%
    09:00 -2°C° 0 mm 3 m/S 766 mmHg 67%
    10:00 -2°C° 0 mm 4 m/S 766 mmHg 57%
    11:00 -1°C° 0 mm 4 m/S 766 mmHg 53%
    12:00 0°C° 0 mm 5 m/S 766 mmHg 48%
    13:00 0°C° 0 mm 5 m/S 766 mmHg 43%
    14:00 +1°C° 0 mm 5 m/S 765 mmHg 42%
    15:00 +1°C° 0 mm 5 m/S 765 mmHg 41%
    16:00 +1°C° 0 mm 5 m/S 765 mmHg 40%
    17:00 -1°C° 0 mm 5 m/S 765 mmHg 43%
    18:00 -2°C° 0 mm 4 m/S 765 mmHg 47%
    19:00 -4°C° 0 mm 4 m/S 766 mmHg 50%
    20:00 -4°C° 0 mm 4 m/S 766 mmHg 49%
    21:00 -4°C° 0 mm 4 m/S 766 mmHg 49%
    22:00 -5°C° 0 mm 5 m/S 766 mmHg 49%
    23:00 -5°C° 0 mm 5 m/S 766 mmHg 48%

    24 Februar, Samstag

    Zeit Temperatur Niederschläge Wind Luftdruck Luftfeuchtigkeit
    00:00 -5°C° 0 mm 5 m/S 766 mmHg 47%
    01:00 -6°C° 0 mm 5 m/S 767 mmHg 47%
    02:00 -6°C° 0 mm 5 m/S 766 mmHg 46%
    03:00 -6°C° 0 mm 5 m/S 766 mmHg 45%
    04:00 -6°C° 0 mm 5 m/S 766 mmHg 45%
    05:00 -6°C° 0 mm 5 m/S 767 mmHg 46%
    06:00 -6°C° 0 mm 6 m/S 767 mmHg 47%
    07:00 -6°C° 0 mm 6 m/S 767 mmHg 48%
    08:00 -5°C° 0 mm 6 m/S 767 mmHg 51%
    09:00 -4°C° 0 mm 7 m/S 767 mmHg 55%
    10:00 -4°C° 0 mm 8 m/S 768 mmHg 58%
    11:00 -2°C° 0 mm 8 m/S 767 mmHg 56%
    12:00 -1°C° 0 mm 8 m/S 767 mmHg 54%
    13:00 0°C° 0 mm 8 m/S 767 mmHg 52%
    14:00 -1°C° 0 mm 8 m/S 767 mmHg 48%
    15:00 -1°C° 0 mm 8 m/S 767 mmHg 45%
    16:00 -1°C° 0 mm 8 m/S 767 mmHg 42%
    17:00 -2°C° 0 mm 7 m/S 767 mmHg 44%
    18:00 -3°C° 0 mm 7 m/S 768 mmHg 46%
    19:00 -4°C° 0 mm 7 m/S 768 mmHg 49%
    20:00 -6°C° 0 mm 7 m/S 768 mmHg 49%
    21:00 -6°C° 0 mm 7 m/S 769 mmHg 49%
    22:00 -6°C° 0 mm 7 m/S 769 mmHg 49%
    23:00 -6°C° 0 mm 6 m/S 769 mmHg 50%

    25 Februar, Sonntag

    Zeit Temperatur Niederschläge Wind Luftdruck Luftfeuchtigkeit
    00:00 -6°C° 0 mm 6 m/S 769 mmHg 50%
    01:00 -6°C° 0 mm 6 m/S 770 mmHg 51%
    02:00 -6°C° 0 mm 6 m/S 770 mmHg 51%
    03:00 -8°C° 0 mm 6 m/S 770 mmHg 52%
    04:00 -8°C° 0 mm 6 m/S 770 mmHg 53%
    05:00 -8°C° 0 mm 6 m/S 770 mmHg 51%
    06:00 -8°C° 0 mm 6 m/S 770 mmHg 50%
    07:00 -9°C° 0 mm 6 m/S 770 mmHg 48%
    08:00 -8°C° 0 mm 6 m/S 770 mmHg 44%
    09:00 -7°C° 0 mm 7 m/S 771 mmHg 40%
    10:00 -7°C° 0 mm 7 m/S 771 mmHg 35%
    11:00 -6°C° 0 mm 7 m/S 771 mmHg 33%
    12:00 -4°C° 0 mm 7 m/S 771 mmHg 30%
    13:00 -4°C° 0 mm 7 m/S 771 mmHg 27%
    14:00 -4°C° 0 mm 6 m/S 770 mmHg 29%
    15:00 -3°C° 0 mm 6 m/S 770 mmHg 31%
    16:00 -3°C° 0 mm 6 m/S 770 mmHg 33%
    17:00 -4°C° 0 mm 5 m/S 770 mmHg 39%
    18:00 -4°C° 0 mm 4 m/S 770 mmHg 45%
    19:00 -5°C° 0 mm 3 m/S 771 mmHg 51%
    20:00 -7°C° 0 mm 4 m/S 771 mmHg 53%
    21:00 -7°C° 0 mm 4 m/S 771 mmHg 56%
    22:00 -7°C° 0 mm 4 m/S 771 mmHg 59%
    23:00 -6°C° 0 mm 3 m/S 771 mmHg 60%

    26 Februar, Montag

    Zeit Temperatur Niederschläge Wind Luftdruck Luftfeuchtigkeit
    00:00 -6°C° 0 mm 3 m/S 771 mmHg 61%
    01:00 -6°C° 0 mm 3 m/S 771 mmHg 62%
    02:00 -7°C° 0 mm 3 m/S 771 mmHg 64%
    03:00 -7°C° 0 mm 3 m/S 771 mmHg 66%
    04:00 -7°C° 0 mm 3 m/S 771 mmHg 68%
    05:00 -7°C° 0 mm 3 m/S 771 mmHg 71%
    06:00 -7°C° 0 mm 3 m/S 771 mmHg 74%
    07:00 -8°C° 0 mm 3 m/S 771 mmHg 76%
    08:00 -7°C° 0 mm 3 m/S 771 mmHg 70%
    09:00 -6°C° 0 mm 3 m/S 770 mmHg 64%
    10:00 -5°C° 0 mm 4 m/S 770 mmHg 58%
    11:00 -4°C° 0 mm 4 m/S 770 mmHg 54%
    12:00 -4°C° 0 mm 4 m/S 770 mmHg 50%
    13:00 -3°C° 0 mm 4 m/S 769 mmHg 46%
    14:00 -3°C° 0,1 mm 4 m/S 769 mmHg 46%
    15:00 -3°C° 0,1 mm 4 m/S 769 mmHg 46%
    16:00 -3°C° 0,1 mm 4 m/S 768 mmHg 46%
    17:00 -4°C° 0 mm 4 m/S 768 mmHg 52%
    18:00 -5°C° 0 mm 3 m/S 768 mmHg 57%
    19:00 -6°C° 0 mm 3 m/S 768 mmHg 62%
    20:00 -6°C° 0 mm 3 m/S 768 mmHg 65%
    21:00 -6°C° 0 mm 3 m/S 768 mmHg 67%
    22:00 -7°C° 0 mm 3 m/S 768 mmHg 70%
    23:00 -7°C° 0 mm 3 m/S 768 mmHg 71%
    Mehr zeigen